COSMOS 1275 DEB, 12708

Orbit data source: Space-Track

COSMOS 1275 DEB, 12708 is space debris in LEO originally from a launch on Thu, 04 Jun 1981 UTC launched from the Plesetsk Missile And Space Complex (PKMTR). Debris objects in space refer to the collection of defunct objects orbiting the Earth. Examples of debris include non-operational satellites, rocket bodies, and fragments generated from explosions, collisions, or faulty payload assembly.

Loading next visibility...
Identifier
12708, 1981-053BC
Orbit
LEO
Country
Flag of CISCIS
Related business
Manufacturer
Unknown
Mission
Spacecraft
Bus & Motor
Unknown
Mass
Unknown
Launch date (UTC)
1981-06-04 (44 years ago)
Launch vehicle
Unknown
Launch site
Plesetsk Missile And Space Complex (PKMTR)
Object type
Payload
Rocket body
Debris
Shape & HBR
Unknown shape, 0.2 m
Radar Cross Section
Small (<0.1 m²)

Expand to show TLE details & history
Last TLE update: 19 hours ago

TLE from 19 hours ago
0 COSMOS 1275 DEB
1 12708U 81053BC  25302.30402310  .00022062  00000-0  40504-2 0  9997
2 12708  82.8613 244.0960 0017427 190.8592 169.2241 14.65502983279981
Epoch: 2025-10-29T07:17Z
TLE epoch observation values (Epoch: 2025-10-29T07:17:47.595Z)
Latitude
-0.00001°
Longitude
96.7686°
Altitude
690.563 km
Speed
7.505 km/s
True Right ascension
16h 16m 23s
True Declination
0° 00' 00"
Sunlit
Object was in daylight at epoch
Visualization orbit readout
Latitude
Unknown
Longitude
Unknown
Altitude
Unknown
Speed
Unknown
Apparent Right ascension
Unknown
Apparent Declination
Unknown
Sunlit
N/A
Visualization observer readout
Local Sidereal Time
21:32:23
Azimuth
Unknown
Elevation
Unknown
Doppler factor
Unknown
Orbital elements
Apogee altitude
684.776 km
Perigee altitude
660.202 km
Semi-major axis
7,050.626 km
Eccentricity
0.00174
Inclination
82.8613°
RAAN
244.096°
Arg. of periapsis
190.8592°
True anomaly
169.26136°
Mean anomaly
169.2241°
Eccentric anomaly
169.24274°
Mean motion
3.66608 °/min
Orbital period
98.2 mins
BSTAR
0.0040504
Loading maneuver chart data...
Computing Atmospheric mass density...
Loading historical data...
Loading historical data...
Loading historical data...
Loading historical data...
Loading historical data...
Loading historical data...
Loading historical data...

Documentation

Showing up to 5 results
|